Powrót do katalogu

STARLINK-30358

AktywnyŁącznośćVLEO
NORAD 57879·PAYLOAD·🇺🇸 United States

Wystrzelony Sep 16, 2023 z Cape Canaveral Space Force Station

Loading…

Następne Przeloty (najbliższe 24 godziny)

TLE

ŚwieżeSource: CelesTrak SupGP

Epoka: Sep 15, 2026, 02:31 UTC

1 57879C 23144R   26258.10534722  .00019621  00000+0  71070-3 0  2581
2 57879  43.0004 295.1849 0001391 258.2477 316.0234 15.27566491    12

Śledź STARLINK-30358 w czasie rzeczywistym z AllMySat

Download on the App Store